TimeEST,TemperatureF,Dew PointF,Humidity,Sea Level PressureIn,VisibilityMPH,Wind Direction,Wind SpeedMPH,Gust SpeedMPH,PrecipitationIn,Events,Conditions,WindDirDegrees,DateUTC
12:50 AM,59.0,55.4,88,29.96,10.0,West,5.8,-,0.00,,Overcast,260,2012-12-08 05:50:00
12:52 AM,59.0,55.4,88,29.96,9.0,West,6.9,-,0.01,Rain,Light Rain,260,2012-12-08 05:52:00
12:54 AM,59.0,55.0,87,29.96,9.0,West,5.8,-,0.01,Rain,Light Rain,260,2012-12-08 05:54:00
1:54 AM,55.0,51.1,86,29.96,6.0,West,5.8,-,0.00,Rain,Light Rain,260,2012-12-08 06:54:00
2:54 AM,54.0,51.1,90,29.96,4.0,West,3.5,-,0.00,,Overcast,260,2012-12-08 07:54:00
3:08 AM,53.6,51.8,94,29.95,2.0,West,4.6,-,N/A,,Overcast,270,2012-12-08 08:08:00
3:25 AM,53.6,51.8,94,29.94,1.8,West,3.5,-,N/A,,Overcast,280,2012-12-08 08:25:00
3:49 AM,53.6,51.8,94,29.93,2.0,Calm,Calm,-,0.01,,Overcast,0,2012-12-08 08:49:00
3:54 AM,54.0,51.1,90,29.94,1.5,Calm,Calm,-,0.01,,Overcast,0,2012-12-08 08:54:00
4:19 AM,53.6,51.8,94,29.93,2.5,Calm,Calm,-,N/A,,Overcast,0,2012-12-08 09:19:00
4:26 AM,53.6,51.8,94,29.92,3.0,Calm,Calm,-,N/A,,Overcast,0,2012-12-08 09:26:00
4:54 AM,53.1,50.0,89,29.94,4.0,WNW,3.5,-,N/A,,Overcast,290,2012-12-08 09:54:00
5:19 AM,53.6,50.0,88,29.92,3.0,Calm,Calm,-,N/A,,Overcast,0,2012-12-08 10:19:00
5:54 AM,54.0,51.1,90,29.94,3.0,Calm,Calm,-,N/A,,Overcast,0,2012-12-08 10:54:00
6:20 AM,53.6,51.8,94,29.94,5.0,Calm,Calm,-,N/A,,Overcast,0,2012-12-08 11:20:00
6:54 AM,54.0,51.1,90,29.95,5.0,Calm,Calm,-,N/A,,Overcast,0,2012-12-08 11:54:00
7:08 AM,53.6,51.8,94,29.94,4.0,Calm,Calm,-,N/A,,Overcast,0,2012-12-08 12:08:00
7:23 AM,53.6,51.8,94,29.93,2.0,South,4.6,-,N/A,,Overcast,190,2012-12-08 12:23:00
7:35 AM,53.6,51.8,94,29.93,3.0,SSW,3.5,-,N/A,,Overcast,200,2012-12-08 12:35:00
7:41 AM,53.6,51.8,94,29.94,2.5,Calm,Calm,-,N/A,,Overcast,0,2012-12-08 12:41:00
7:54 AM,54.0,51.1,90,29.95,2.0,Calm,Calm,-,N/A,,Overcast,0,2012-12-08 12:54:00
8:03 AM,53.6,51.8,94,29.95,1.8,Calm,Calm,-,N/A,,Overcast,0,2012-12-08 13:03:00
8:36 AM,55.4,51.8,88,29.95,0.8,SW,3.5,-,N/A,,Overcast,220,2012-12-08 13:36:00
8:54 AM,55.0,52.0,89,29.96,0.8,Calm,Calm,-,N/A,,Overcast,0,2012-12-08 13:54:00
9:06 AM,55.4,53.6,94,29.95,1.0,WSW,3.5,-,N/A,,Overcast,240,2012-12-08 14:06:00
9:25 AM,55.4,53.6,94,29.96,0.8,WSW,5.8,-,N/A,,Overcast,240,2012-12-08 14:25:00
9:35 AM,55.4,53.6,94,29.97,1.2,WSW,6.9,-,N/A,,Overcast,240,2012-12-08 14:35:00
9:47 AM,55.4,51.8,88,29.96,3.0,West,8.1,-,N/A,,Overcast,260,2012-12-08 14:47:00
9:54 AM,55.9,52.0,87,29.97,3.0,WSW,6.9,-,N/A,,Overcast,240,2012-12-08 14:54:00
10:03 AM,55.4,51.8,88,29.96,2.0,WSW,6.9,-,N/A,,Overcast,250,2012-12-08 15:03:00
10:19 AM,55.4,51.8,88,29.96,3.0,WSW,5.8,-,N/A,,Overcast,240,2012-12-08 15:19:00
10:30 AM,55.4,53.6,94,29.96,2.5,WSW,6.9,-,N/A,,Overcast,240,2012-12-08 15:30:00
10:40 AM,55.4,51.8,88,29.96,4.0,West,8.1,-,N/A,,Overcast,260,2012-12-08 15:40:00
10:54 AM,55.0,52.0,89,29.97,6.0,WSW,9.2,-,N/A,,Overcast,250,2012-12-08 15:54:00
11:18 AM,55.4,51.8,88,29.95,8.0,West,6.9,-,N/A,,Overcast,270,2012-12-08 16:18:00
11:54 AM,55.0,52.0,89,29.95,5.0,SSW,5.8,-,N/A,,Overcast,210,2012-12-08 16:54:00
12:54 PM,55.0,51.1,86,29.94,7.0,Variable,6.9,-,N/A,,Overcast,0,2012-12-08 17:54:00
1:54 PM,55.0,51.1,86,29.94,7.0,WSW,4.6,-,N/A,,Overcast,250,2012-12-08 18:54:00
2:54 PM,55.0,50.0,83,29.93,7.0,Calm,Calm,-,N/A,,Overcast,0,2012-12-08 19:54:00
3:54 PM,54.0,50.0,86,29.95,5.0,SW,5.8,-,N/A,,Overcast,220,2012-12-08 20:54:00
4:41 PM,53.6,50.0,88,29.94,4.0,SSW,3.5,-,N/A,,Overcast,210,2012-12-08 21:41:00
4:54 PM,53.1,50.0,89,29.95,3.0,SW,3.5,-,N/A,,Overcast,230,2012-12-08 21:54:00
5:54 PM,52.0,48.9,89,29.98,2.0,WSW,5.8,-,N/A,,Overcast,240,2012-12-08 22:54:00
6:06 PM,51.8,50.0,94,29.97,1.8,West,3.5,-,N/A,,Overcast,260,2012-12-08 23:06:00
6:54 PM,52.0,50.0,93,29.99,0.5,Calm,Calm,-,N/A,Fog,Fog,0,2012-12-08 23:54:00
7:39 PM,51.8,48.2,88,29.99,0.2,South,4.6,-,N/A,Fog,Fog,190,2012-12-09 00:39:00
7:54 PM,52.0,50.0,93,29.99,0.2,South,3.5,-,N/A,Fog,Fog,170,2012-12-09 00:54:00
8:54 PM,52.0,50.0,93,30.01,0.2,SSW,3.5,-,N/A,Fog,Fog,200,2012-12-09 01:54:00
9:16 PM,51.8,50.0,94,30.01,0.5,South,4.6,-,N/A,Fog,Fog,180,2012-12-09 02:16:00
9:54 PM,52.0,50.0,93,30.02,0.5,South,4.6,-,N/A,Fog,Fog,180,2012-12-09 02:54:00
10:15 PM,51.8,48.2,88,30.02,0.2,Calm,Calm,-,N/A,Fog,Fog,0,2012-12-09 03:15:00
10:54 PM,51.1,48.9,92,30.03,0.2,Calm,Calm,-,N/A,Fog,Fog,0,2012-12-09 03:54:00
11:09 PM,51.8,48.2,88,30.02,0.2,SSE,3.5,-,N/A,Fog,Fog,160,2012-12-09 04:09:00
11:27 PM,51.8,48.2,88,30.02,1.0,Calm,Calm,-,N/A,,Mist,0,2012-12-09 04:27:00
11:34 PM,50.0,48.2,94,30.02,0.8,Calm,Calm,-,N/A,,Mist,0,2012-12-09 04:34:00
11:46 PM,50.0,46.4,87,30.02,0.2,Calm,Calm,-,N/A,Fog,Fog,0,2012-12-09 04:46:00
11:54 PM,50.0,46.9,89,30.03,0.2,Calm,Calm,-,N/A,Fog,Fog,0,2012-12-09 04:54:00